カタログに戻る

KUIPER-00032

運用中通信VLEO
NORAD 63745·PAYLOAD·🇺🇸 United States

打ち上げ Apr 28, 2025 から Cape Canaveral Space Force Station

Loading…

次のパス (今後24時間)

TLE

最新Source: CelesTrak SupGP

元期: Sep 15, 2026, 03:32 UTC

1 63745C 25088X   26258.14762732  .00010493  00000+0  23757-3 0  2584
2 63745  51.8654 184.3009 0005304  77.0211 243.2769 15.42480677    19

AllMySatでKUIPER-00032をリアルタイム追跡

Download on the App Store